Temperature
16 16 15 15 15 15 15 15 15 16 16 16 16 16 16 16 16 16 16 16 16 16 17 17 17 17 17 17 17 18 18 18 18 18 18 18 18 18 18 18 18 18 18
16 15 15 15 15 15 15 15 15 15 15 15 15 16 16 16 16 16 16 16 16 16 16 17 17 17 17 17 17 17 17 17 18 18 18 18 18 18 18 18 18 18 18
15 15 15 15 15 15 15 15 15 15 15 15 15 15 15 15 16 16 16 16 16 16 16 16 17 17 17 17 17 17 17 17 17 17 17 18 18 18 18 18 18 18 18
15 15 15 15 15 15 15 15 15 15 15 15 15 15 15 15 15 16 16 16 16 16 16 16 16 17 17 17 17 17 17 17 17 17 17 17 17 17 17 18 18 18 18
15 15 15 15 15 15 15 15 15 15 15 15 15 15 15 15 15 15 16 16 16 16 16 16 16 16 16 17 17 17 17 17 17 17 17 17 17 17 17 17 17 17 17
15 15 15 15 15 15 15 15 15 15 15 15 15 15 15 15 15 15 15 16 16 16 16 16 16 16 16 16 17 17 17 17 17 17 17 17 17 17 17 17 17 17 17
15 15 15 15 15 15 14 14 14 14 15 15 15 15 15 15 15 15 15 15 16 16 16 16 16 16 16 16 16 17 17 17 17 17 17 17 17 17 17 17 17 17 17
15 15 15 15 14 14 14 14 14 14 14 14 14 15 15 15 15 15 15 15 15 15 15 15 16 16 16 16 16 16 16 17 17 17 17 17 17 17 17 17 17 17 17
15 15 15 14 14 14 14 14 14 14 14 14 14 14 14 14 15 15 15 15 15 15 15 15 16 16 16 16 16 16 16 16 16 17 17 17 17 17 17 17 17 17 17
15 15 15 14 14 14 14 14 14 14 14 14 14 14 14 14 14 14 15 15 15 15 15 15 15 15 16 16 16 16 16 16 16 16 16 16 16 16 16 16 17 17 17
15 15 15 14 14 14 14 14 14 14 14 14 14 14 14 14 14 14 14 15 15 15 15 15 15 15 15 16 16 16 16 16 16 16 16 16 16 16 16 16 16 17 17
15 15 15 15 14 14 14 14 14 14 14 14 14 14 14 14 14 14 14 14 14 15 15 15 15 15 15 15 15 16 16 16 16 16 16 16 16 16 16 16 16 16 16
15 15 15 15 14 14 14 14 14 14 14 14 14 14 14 14 14 14 14 14 14 14 15 15 15 15 15 15 15 15 16 16 16 16 16 16 16 16 16 16 16 16 16
15 15 15 15 15 14 14 14 14 14 13 14 14 14 14 14 14 14 14 14 14 14 14 15 15 15 15 15 15 15 15 16 16 16 16 16 16 16 16 16 16 16 16
15 15 15 15 15 14 14 14 14 14 14 14 13 13 14 14 14 14 14 14 14 14 14 14 14 15 15 15 15 15 15 15 15 16 16 16 16 16 16 16 16 16 16
15 15 15 15 15 14 14 14 14 14 14 14 13 13 13 14 14 14 14 14 14 14 14 14 14 14 15 15 15 15 15 15 15 15 15 15 15 16 16 16 16 16 16
15 15 15 15 15 14 14 14 14 14 14 14 14 14 13 13 13 14 14 14 14 14 14 14 14 14 14 14 15 15 15 15 15 15 15 15 15 15 15 15 15 15 15
15 15 15 15 15 15 14 14 14 14 14 14 14 14 13 13 13 13 14 14 14 14 14 14 14 14 14 14 14 14 14 15 15 15 15 15 15 15 15 15 15 15 15
15 15 15 15 15 14 14 14 14 14 14 14 14 14 14 13 14 13 13 13 14 13 13 14 14 14 14 14 14 14 14 14 14 14 14 15 15 15 15 15 15 15 15
15 15 15 15 15 14 14 14 14 14 14 14 14 14 14 14 14 13 13 13 13 13 13 13 14 14 14 14 14 14 14 14 14 14 14 14 14 14 14 14 15 15 15
15 15 15 14 14 14 14 14 14 14 14 14 14 14 14 13 13 13 13 13 13 13 13 13 13 14 14 13 14 14 14 14 14 14 14 14 14 14 14 14 14 14 14
14 14 14 14 14 14 14 14 14 14 13 13 13 13 13 13 13 13 13 13 13 13 13 13 13 13 14 14 13 13 13 13 13 14 14 14 14 14 14 14 14 14 14
14 14 14 14 14 13 13 13 13 13 13 13 13 13 13 13 13 13 13 13 13 13 13 13 13 13 13 13 13 13 13 13 13 14 14 14 14 14 14 14 14 14 14
14 13 13 13 13 13 13 13 13 13 13 13 13 12 12 12 12 12 13 13 13 13 13 13 13 13 13 13 13 13 13 13 13 13 13 13 13 13 14 13 13 13 13
13 13 13 13 13 13 12 12 12 12 12 12 12 12 12 12 12 12 12 12 12 12 12 12 12 12 12 12 12 12 12 12 13 13 13 13 13 13 13 13 13 13 13
13 12 12 12 12 12 12 12 12 12 12 12 12 12 12 11 11 11 11 11 11 12 12 12 12 12 12 12 12 12 12 12 12 12 13 13 13 12 12 13 13 13 13
Wind_Speed
2 2 2 3 3 4 3 3 3 3 3 3 3 2 1 1 0 1 2 3 3 3 3 3 3 2 2 2 1 1 1 3 6 9 9 11 12 14 14 15 15 15 17
2 2 3 3 4 4 4 3 3 3 2 2 3 3 2 1 1 0 1 2 3 3 3 3 3 2 2 2 1 1 2 5 7 10 11 11 12 13 13 13 14 15 17
4 3 3 3 3 5 4 4 4 3 3 3 3 3 2 1 1 1 0 1 2 3 4 3 3 3 2 2 3 3 5 6 8 10 11 11 12 13 13 13 13 15 17
5 4 3 2 3 5 4 3 3 3 4 3 3 3 3 2 2 1 0 0 1 2 3 3 4 3 3 3 4 5 6 7 8 9 10 12 12 12 13 13 13 14 15
5 4 2 2 4 3 3 3 3 2 2 3 3 2 3 3 2 2 1 1 1 1 2 2 3 3 3 3 4 6 7 8 8 9 10 11 11 12 12 12 12 14 14
5 4 2 3 4 3 4 3 3 3 2 2 3 3 4 3 3 2 1 1 1 1 0 2 2 2 2 3 4 6 7 8 8 9 9 9 11 12 12 12 12 13 13
5 4 3 3 3 3 3 3 2 4 3 3 3 4 4 4 4 3 2 2 2 2 1 1 2 1 1 2 4 6 7 7 9 9 8 8 10 12 13 13 13 13 13
3 3 3 2 2 3 4 4 3 2 3 3 2 2 3 5 4 4 3 2 2 2 1 0 1 2 2 3 4 5 7 7 8 8 8 8 10 12 13 13 13 13 13
2 2 2 2 2 2 2 2 2 2 2 3 2 3 2 1 3 4 3 3 3 2 2 1 0 2 3 3 4 5 6 7 8 8 8 9 10 11 12 12 13 13 13
1 1 2 2 2 1 1 2 1 1 1 2 2 1 1 3 1 2 4 4 3 2 2 2 1 0 2 3 4 6 7 8 8 8 9 9 10 11 11 12 12 12 13
1 0 1 2 1 1 1 2 2 2 1 1 0 1 1 1 1 2 2 4 4 3 2 2 1 0 1 2 3 5 7 8 9 9 10 11 11 11 11 12 12 12 12
2 2 0 0 0 1 1 1 1 2 1 1 0 1 1 1 1 1 1 1 2 3 3 2 1 1 1 2 3 5 7 9 9 10 10 11 11 11 11 12 12 12 12
1 2 1 1 1 1 1 1 1 1 1 1 0 1 1 1 2 2 2 1 1 2 3 2 2 1 2 2 3 5 7 8 9 10 10 10 11 12 12 12 13 13 13
3 2 2 1 1 1 0 0 0 1 1 1 1 1 1 1 1 2 2 2 0 2 2 3 2 2 2 2 4 5 6 8 9 10 10 10 11 12 12 12 12 12 13
2 2 2 1 1 1 1 0 1 1 1 1 1 1 1 1 0 1 2 3 3 1 2 3 2 2 2 3 4 5 5 8 10 10 11 11 11 11 11 11 11 12 12
1 1 1 1 1 1 1 0 1 1 1 2 1 1 1 1 1 1 1 2 3 3 2 3 2 3 2 2 4 4 5 7 9 10 11 11 11 11 11 10 11 11 11
1 2 2 1 2 1 1 1 2 1 1 2 2 1 2 2 1 1 1 1 2 3 3 3 2 2 2 2 1 2 4 5 6 9 10 10 11 11 11 10 10 11 11
1 1 1 1 1 1 1 1 2 2 1 2 3 2 3 2 2 2 1 1 2 2 3 3 2 2 2 3 2 2 2 4 6 9 10 11 11 12 12 12 11 11 11
1 1 1 0 1 1 1 1 1 1 1 2 2 2 3 2 2 2 2 2 2 2 2 3 3 2 2 2 1 1 2 1 4 7 10 11 12 12 12 13 13 13 13
2 1 1 0 1 1 1 1 1 1 2 2 2 2 2 2 3 3 2 3 3 2 2 2 2 2 2 2 1 1 2 2 2 3 5 7 10 12 13 13 14 14 14
2 1 1 2 1 1 1 1 1 1 2 3 3 3 3 3 3 2 2 2 2 2 2 2 3 2 2 2 2 2 2 2 2 2 2 2 3 4 7 11 13 14 14
3 2 2 2 2 2 2 1 1 1 2 2 4 4 4 4 5 5 4 3 2 3 4 3 3 4 5 4 3 3 2 2 3 2 3 3 3 4 4 7 10 13 14
2 2 3 2 3 4 4 3 2 1 2 3 3 4 4 4 4 4 5 5 5 6 5 4 5 6 6 5 4 4 4 4 5 3 3 3 3 4 4 7 10 12 12
2 2 3 3 3 4 5 4 3 1 2 3 3 4 4 5 5 4 4 4 5 5 7 6 5 7 7 6 6 6 6 4 3 2 4 4 3 3 3 4 9 11 12
2 2 2 3 3 5 6 5 3 1 2 4 4 4 4 5 7 6 3 5 6 6 7 8 9 9 10 10 7 3 3 3 4 3 3 4 3 2 2 3 6 10 12
2 3 3 3 3 4 6 6 3 1 2 4 4 5 6 7 8 6 4 5 7 7 6 6 6 7 7 7 9 7 6 5 3 4 4 4 3 3 2 2 2 5 7
Wind_Direction
60 43 22 21 12 11 3 351 356 356 351 354 5 35 20 33 89 218 241 227 223 228 230 228 213 215 219 213 206 203 187 158 150 142 139 136 138 141 146 150 154 157 158
75 50 25 13 6 11 13 5 9 13 2 7 12 17 12 15 38 360 280 269 250 250 248 231 214 209 210 198 172 164 151 145 145 143 143 141 139 142 145 150 153 155 157
71 63 41 13 0 10 13 15 15 21 18 14 5 359 4 7 11 351 320 280 269 265 252 239 212 199 186 175 147 128 131 137 139 144 145 143 142 143 145 149 148 150 153
74 71 50 10 4 19 19 19 17 17 14 9 350 343 356 356 354 339 336 330 281 276 262 243 216 194 179 168 151 137 132 139 141 142 144 143 144 143 144 145 144 145 149
70 73 52 12 22 30 21 18 30 26 12 357 342 356 355 354 345 354 359 16 16 312 262 238 213 187 174 167 152 141 140 143 145 144 144 144 145 145 145 145 146 148 150
66 63 47 24 31 37 22 18 19 20 15 353 11 13 352 349 358 8 349 7 12 10 309 207 195 206 183 170 159 153 149 151 150 147 147 148 150 151 151 150 151 151 153
72 66 48 31 30 38 21 15 24 22 10 12 36 8 354 357 8 10 1 9 18 23 76 161 170 187 200 183 171 165 162 159 157 152 152 155 157 156 154 154 156 156 158
72 69 62 41 30 32 23 22 38 28 3 23 69 55 7 353 352 1 2 14 9 17 25 48 193 192 195 175 179 177 175 173 166 159 160 156 157 157 157 157 159 161 162
72 69 65 62 39 50 25 9 40 61 14 355 54 112 103 312 323 336 350 0 1 7 346 341 155 190 189 180 188 192 185 182 176 172 169 162 158 160 161 161 163 165 163
67 80 75 71 57 47 25 351 53 85 85 8 350 24 152 169 133 335 337 343 351 357 341 337 321 160 173 179 193 195 193 190 188 185 182 177 171 170 171 170 170 169 166
328 358 75 76 59 30 9 7 19 47 92 114 17 349 30 55 107 139 315 332 345 334 328 316 307 140 173 178 186 196 197 195 194 195 193 191 186 185 184 181 176 173 172
323 315 41 74 31 13 2 3 15 40 56 96 113 127 139 141 205 152 203 293 319 315 324 319 312 272 216 197 203 197 194 198 200 197 195 197 196 195 194 191 187 182 179
283 273 271 261 263 273 291 24 35 18 17 22 293 221 201 210 192 166 157 227 307 312 329 320 294 286 248 225 230 217 204 201 202 202 202 202 202 203 200 197 195 191 188
233 238 231 242 251 272 285 95 9 322 345 340 341 329 280 267 191 173 170 154 30 332 330 302 307 286 276 250 241 221 217 209 208 208 208 206 205 203 203 202 199 198 197
230 222 227 237 248 266 256 162 319 305 333 331 321 337 330 295 265 199 175 163 158 202 294 291 298 294 285 257 242 219 220 218 215 213 211 210 207 205 201 200 200 199 199
233 211 241 247 246 259 262 239 293 298 330 315 300 328 323 297 297 272 198 176 167 174 225 267 268 285 286 266 238 218 225 223 219 218 213 210 207 205 202 200 198 197 197
234 220 232 234 240 261 276 257 278 291 312 314 319 311 296 289 294 294 268 200 183 172 211 272 278 298 290 277 286 243 233 224 225 221 215 214 209 205 202 202 201 197 198
272 245 243 258 271 292 301 243 286 292 284 292 301 312 300 295 286 280 257 245 230 203 196 245 281 292 269 256 250 248 241 228 225 224 219 218 215 211 207 206 206 203 202
356 10 54 37 299 308 313 287 293 313 299 280 278 273 285 290 283 277 257 248 245 232 204 215 256 267 274 272 269 269 253 257 235 229 224 224 220 216 214 213 211 208 207
19 11 24 18 310 304 313 313 322 323 324 309 292 271 271 250 249 257 259 254 247 242 231 226 249 264 268 277 235 247 269 259 248 234 224 222 223 222 220 219 215 212 211
14 10 20 3 344 336 327 321 312 319 321 321 316 297 281 279 268 252 254 248 235 238 239 234 246 257 260 259 241 233 237 259 261 229 216 222 215 219 223 223 220 217 214
357 6 359 342 337 346 336 328 334 304 305 306 305 303 297 291 295 286 279 261 225 221 229 229 238 238 245 237 233 226 221 223 257 229 191 231 200 219 221 219 219 214 212
0 351 338 334 320 313 333 344 344 337 304 293 291 297 306 310 304 292 292 288 269 254 228 218 231 240 239 229 218 227 222 218 232 220 180 231 216 223 224 220 212 207 206
349 330 323 321 312 315 324 325 330 348 326 310 296 281 281 291 297 289 280 286 280 273 255 238 235 247 246 236 219 222 224 230 250 241 184 219 224 225 225 216 211 206 205
331 315 312 315 308 305 319 323 336 326 308 305 306 300 290 284 298 300 281 277 283 284 276 261 254 255 256 247 226 213 213 210 245 244 202 198 214 218 229 232 218 209 207
304 314 317 311 298 292 306 314 318 273 292 300 304 301 295 296 300 298 278 268 274 279 285 289 278 273 265 257 236 220 215 215 223 239 212 190 196 181 222 241 217 205 205
Height
1527 1526 1525 1524 1523 1522 1521 1521 1520 1519 1519 1518 1518 1518 1518 1518 1518 1518 1519 1519 1519 1520 1520 1520 1520 1519 1519 1518 1517 1516 1514 1513 1513 1514 1515 1515 1516 1519 1523 1527 1530 1533 1537
1527 1525 1524 1523 1522 1522 1521 1520 1519 1519 1518 1518 1517 1517 1517 1517 1517 1518 1518 1518 1519 1519 1519 1519 1519 1519 1518 1517 1517 1515 1511 1511 1514 1516 1518 1519 1520 1523 1526 1529 1531 1533 1536
1526 1525 1524 1523 1522 1521 1520 1520 1519 1518 1518 1517 1517 1517 1516 1516 1517 1517 1517 1518 1518 1518 1518 1519 1519 1518 1518 1517 1517 1515 1513 1513 1516 1518 1520 1521 1523 1525 1528 1530 1532 1534 1537
1526 1525 1524 1523 1522 1521 1520 1519 1518 1518 1517 1516 1516 1516 1516 1516 1516 1516 1517 1517 1517 1517 1518 1518 1519 1518 1518 1518 1517 1517 1516 1516 1518 1520 1522 1523 1525 1527 1530 1532 1534 1536 1539
1527 1525 1524 1523 1522 1521 1519 1518 1518 1517 1517 1516 1516 1515 1515 1515 1515 1516 1516 1517 1517 1517 1517 1518 1518 1519 1519 1519 1518 1518 1518 1519 1520 1521 1523 1525 1527 1529 1531 1534 1535 1538 1541
1527 1526 1524 1523 1522 1521 1519 1518 1518 1517 1516 1516 1515 1515 1515 1515 1515 1516 1516 1516 1517 1517 1517 1518 1518 1519 1519 1519 1519 1519 1520 1521 1521 1522 1523 1525 1527 1529 1532 1534 1537 1539 1542
1527 1526 1525 1523 1522 1521 1520 1519 1518 1517 1516 1516 1516 1515 1515 1515 1516 1516 1516 1516 1516 1517 1517 1518 1518 1519 1519 1520 1520 1521 1521 1522 1522 1523 1524 1524 1525 1528 1532 1534 1537 1540 1542
1527 1526 1525 1524 1522 1521 1520 1519 1518 1517 1517 1517 1516 1516 1516 1517 1516 1516 1516 1516 1516 1517 1517 1517 1518 1519 1519 1520 1521 1521 1522 1522 1523 1524 1524 1523 1523 1527 1531 1535 1537 1540 1542
1528 1527 1525 1524 1523 1522 1520 1519 1518 1518 1517 1517 1517 1517 1517 1516 1516 1516 1516 1516 1516 1517 1517 1517 1518 1518 1519 1520 1521 1521 1522 1523 1523 1524 1525 1525 1526 1529 1532 1535 1537 1540 1542
1528 1527 1526 1525 1523 1522 1521 1520 1519 1518 1518 1517 1517 1517 1517 1517 1517 1517 1517 1516 1516 1516 1516 1517 1517 1518 1519 1520 1521 1521 1522 1523 1524 1525 1526 1527 1529 1531 1533 1535 1537 1540 1542
1528 1527 1526 1525 1523 1522 1521 1520 1519 1519 1518 1518 1517 1517 1517 1517 1517 1517 1516 1516 1516 1516 1516 1516 1517 1517 1518 1519 1520 1521 1522 1523 1524 1525 1527 1528 1530 1531 1534 1535 1537 1539 1542
1528 1527 1526 1525 1524 1523 1521 1520 1519 1519 1518 1517 1517 1517 1517 1517 1517 1517 1516 1516 1516 1516 1516 1516 1516 1517 1517 1518 1519 1520 1521 1523 1524 1525 1526 1528 1530 1531 1533 1535 1537 1539 1541
1528 1527 1526 1525 1524 1523 1522 1521 1520 1519 1518 1517 1517 1516 1516 1516 1516 1516 1516 1516 1516 1516 1516 1516 1516 1516 1517 1517 1518 1519 1521 1522 1523 1524 1526 1527 1529 1530 1532 1534 1536 1538 1540
1528 1527 1526 1526 1524 1523 1522 1521 1520 1519 1518 1517 1516 1516 1516 1516 1516 1516 1516 1516 1515 1516 1515 1515 1515 1515 1516 1516 1517 1518 1519 1520 1522 1523 1525 1526 1528 1529 1531 1533 1535 1537 1538
1528 1527 1526 1526 1524 1523 1522 1521 1520 1519 1518 1517 1516 1516 1515 1515 1515 1515 1515 1516 1516 1515 1515 1514 1514 1514 1515 1515 1516 1516 1517 1519 1520 1521 1523 1524 1526 1528 1529 1531 1533 1534 1536
1527 1527 1526 1525 1524 1523 1522 1521 1520 1519 1518 1517 1516 1516 1515 1515 1515 1515 1515 1515 1515 1515 1514 1514 1514 1514 1514 1514 1514 1515 1516 1517 1518 1519 1520 1522 1524 1525 1527 1529 1530 1532 1534
1527 1526 1525 1524 1523 1523 1522 1521 1520 1519 1518 1517 1516 1515 1515 1514 1514 1514 1514 1513 1513 1513 1513 1512 1513 1512 1513 1513 1513 1513 1514 1515 1516 1517 1518 1520 1521 1523 1525 1526 1528 1529 1531
1525 1525 1524 1523 1523 1522 1521 1520 1519 1518 1517 1516 1515 1515 1514 1513 1513 1512 1512 1512 1512 1512 1512 1511 1511 1511 1511 1511 1511 1511 1512 1513 1514 1514 1516 1517 1519 1520 1522 1523 1525 1526 1528
1524 1523 1522 1522 1521 1520 1520 1519 1518 1517 1516 1515 1514 1513 1513 1512 1511 1511 1511 1510 1510 1510 1510 1509 1509 1509 1509 1509 1509 1509 1510 1510 1511 1512 1513 1514 1516 1517 1518 1520 1521 1523 1524
1522 1522 1521 1520 1520 1519 1518 1517 1517 1516 1515 1514 1513 1512 1511 1510 1510 1509 1509 1508 1508 1508 1508 1507 1507 1506 1507 1507 1507 1507 1507 1508 1509 1510 1510 1511 1512 1514 1515 1516 1517 1519 1520
1520 1520 1519 1519 1518 1517 1516 1515 1515 1514 1513 1512 1511 1510 1510 1509 1508 1507 1507 1506 1506 1505 1505 1505 1504 1504 1504 1504 1504 1505 1505 1505 1506 1506 1507 1508 1509 1510 1511 1512 1513 1514 1516
1519 1518 1517 1517 1516 1515 1514 1513 1513 1512 1511 1510 1509 1508 1507 1507 1506 1505 1504 1504 1503 1503 1502 1502 1501 1501 1501 1501 1502 1502 1502 1502 1502 1503 1503 1504 1505 1505 1506 1508 1508 1510 1511
1517 1516 1515 1515 1514 1513 1512 1511 1510 1509 1508 1507 1506 1505 1504 1504 1503 1502 1501 1500 1500 1499 1499 1499 1498 1497 1498 1498 1498 1498 1498 1498 1498 1499 1499 1499 1500 1501 1502 1503 1504 1505 1506
1515 1514 1513 1512 1511 1511 1510 1509 1508 1507 1506 1505 1504 1502 1501 1500 1499 1498 1497 1496 1496 1495 1495 1494 1494 1494 1494 1494 1494 1495 1494 1494 1494 1495 1495 1495 1495 1496 1497 1498 1499 1501 1502
1513 1512 1511 1510 1509 1508 1507 1506 1505 1504 1503 1502 1501 1500 1498 1497 1496 1494 1493 1492 1491 1491 1490 1490 1489 1489 1489 1489 1489 1490 1490 1490 1489 1489 1490 1490 1490 1492 1492 1493 1495 1496 1497
1511 1510 1508 1507 1506 1505 1504 1503 1502 1501 1499 1498 1497 1496 1495 1494 1492 1491 1489 1488 1486 1485 1485 1484 1484 1483 1483 1484 1484 1484 1484 1484 1484 1484 1485 1486 1486 1487 1488 1488 1489 1491 1492